Temp
85 91 95 98 70 66 59 73 82 83 83 90 89 83 79 81 77 64 89 91 91 87 85 84 81 81 81 81 80 80 79 79 79 79 79 79 79 79 79 79 80 80 80 81 80 80 80 80 79
98 100 102 90 61 61 73 82 82 85 85 91 89 86 81 76 86 88 87 92 91 88 86 83 80 81 81 80 80 80 79 79 79 79 79 79 79 79 80 80 80 80 80 80 80 80 79 79 79
91 98 91 84 68 59 66 86 83 76 86 84 84 87 83 79 88 89 94 93 91 85 84 81 80 80 80 80 80 79 79 79 79 79 79 79 79 79 79 79 80 80 80 80 79 79 78 78 77
97 97 94 78 66 74 71 80 78 73 70 80 87 76 85 91 89 93 97 94 89 86 84 81 80 80 80 80 80 79 79 79 79 79 79 79 79 79 79 79 79 80 79 79 78 77 77 77 77
101 95 82 74 73 88 82 76 72 64 65 81 85 76 77 89 95 95 93 92 82 86 86 82 80 80 80 80 80 79 79 79 79 79 79 79 79 79 79 79 79 79 79 78 77 77 76 76 76
91 94 76 57 72 90 71 70 68 63 64 65 80 77 75 89 93 90 92 91 91 89 87 84 80 80 80 79 79 79 79 79 79 79 79 79 79 79 79 79 79 79 78 78 77 76 76 75 75
89 88 80 73 78 83 70 74 67 66 68 71 87 75 79 89 95 95 91 90 89 89 85 76 83 80 79 79 78 78 78 78 78 78 78 78 78 78 78 78 78 78 77 77 76 75 75 75 75
96 92 80 83 77 74 76 71 74 71 71 90 93 75 76 88 92 93 92 88 88 87 82 84 84 79 80 81 78 78 78 77 77 78 78 78 78 78 78 77 78 78 77 76 75 75 76 76 76
102 86 78 82 82 67 70 67 82 86 80 84 85 85 88 91 90 82 82 83 83 86 83 84 85 83 83 82 79 78 79 78 78 78 78 77 77 78 79 79 77 78 77 76 75 75 76 76 77
92 77 84 92 92 76 72 71 75 78 77 72 72 80 81 84 83 79 78 75 75 75 78 78 77 72 71 77 77 78 80 79 76 76 75 74 77 76 80 80 77 78 77 76 76 76 76 77 77
94 82 91 91 93 92 86 76 76 74 62 64 64 67 73 77 75 73 74 73 74 74 74 78 77 77 77 73 73 73 73 73 77 75 71 66 70 69 73 77 74 73 74 71 75 76 76 74 75
87 93 93 92 93 87 78 76 63 64 62 68 69 70 69 67 66 67 69 70 72 73 73 76 79 79 75 79 74 78 77 75 73 72 70 71 72 68 68 67 67 70 67 68 71 72 69 70 71
89 90 92 91 87 80 77 69 63 62 67 70 70 70 66 65 66 68 69 68 71 69 71 74 76 75 76 76 76 77 76 75 74 73 72 70 67 64 66 67 66 64 66 66 65 65 64 65 66
93 91 89 88 84 82 76 72 70 64 68 67 67 64 65 65 65 65 66 65 67 68 69 73 73 71 72 72 72 73 74 74 74 73 70 71 69 67 67 66 64 65 65 63 62 60 60 60 63
87 77 77 85 84 80 79 67 59 67 70 66 63 64 63 63 65 63 64 63 65 67 68 71 73 73 72 71 72 73 73 74 72 71 71 70 68 66 65 64 64 64 64 63 62 61 60 60 62
73 62 53 63 66 71 83 58 64 70 70 65 62 61 60 61 62 63 64 64 66 70 69 71 74 73 73 73 74 73 74 73 72 72 71 70 68 67 64 64 62 63 63 62 61 60 61 61 62
78 63 56 55 65 68 81 65 69 74 68 60 59 59 59 60 60 62 65 67 70 71 71 72 71 71 71 72 71 73 73 72 71 70 70 70 70 69 66 65 64 63 62 62 61 61 61 60 62
70 68 60 56 71 85 79 70 71 70 65 59 60 62 62 63 61 64 65 71 72 72 72 71 71 70 70 71 70 71 71 72 71 69 70 72 70 70 67 67 67 65 64 63 62 61 63 62 61
85 76 72 71 78 78 79 73 73 69 65 62 62 64 62 62 64 69 71 72 72 71 72 71 68 68 68 68 68 68 68 69 69 70 67 66 67 68 66 66 66 66 65 65 63 61 61 61 62
84 78 70 69 77 76 79 75 74 70 66 65 63 65 64 65 66 67 68 72 71 72 71 70 66 68 67 66 67 68 67 69 66 66 66 68 68 68 67 65 64 64 64 63 64 62 59 59 60
81 77 76 76 80 84 79 67 57 56 66 67 69 67 66 60 61 65 67 67 69 69 69 68 68 69 68 68 68 66 66 66 66 66 66 66 68 68 66 65 64 63 62 63 61 61 60 57 59
75 83 81 79 75 67 70 43 53 56 55 63 66 65 61 61 65 64 66 63 63 65 68 68 70 66 65 67 65 62 62 61 63 64 62 62 67 66 67 63 63 62 60 59 60 60 59 59 56
78 84 81 80 76 70 66 56 54 53 52 59 62 63 63 65 64 63 61 64 67 67 68 70 66 64 65 65 64 63 60 62 59 59 59 59 61 64 65 61 62 62 60 59 60 60 59 59 58
86 81 80 80 76 63 69 66 48 55 59 59 61 62 64 64 65 66 68 69 65 67 72 71 67 65 66 65 64 59 58 58 57 56 56 58 62 61 61 63 62 60 60 59 60 62 62 60 59
81 73 63 59 60 60 73 57 53 61 64 63 61 62 64 68 67 68 65 68 68 69 70 68 67 64 65 62 62 61 60 58 57 57 58 58 59 59 58 59 59 59 60 61 60 60 60 59 58
76 72 62 50 53 60 64 49 48 64 64 67 67 67 68 67 66 64 66 69 69 66 65 65 64 62 60 60 61 60 59 60 60 58 58 58 56 57 59 59 60 60 61 61 60 60 59 59 59
74 68 76 64 67 61 54 52 58 65 65 66 63 65 60 64 64 66 68 70 63 65 65 65 62 62 61 61 61 59 59 58 56 56 56 55 57 58 58 58 59 59 61 61 60 59 58 58 58
77 80 64 67 52 51 53 50 50 56 59 63 63 63 59 61 67 67 63 64 66 67 63 61 59 59 61 62 60 59 57 58 57 56 56 55 57 57 57 56 58 59 59 60 59 58 58 57 58
72 69 70 68 61 53 44 48 64 62 64 64 63 65 66 66 66 67 66 66 66 66 64 61 61 62 62 59 59 58 57 57 57 55 56 55 56 56 56 57 60 60 59 59 59 58 60 59 58
76 70 69 59 57 55 53 49 69 68 69 67 66 66 66 66 66 68 65 64 63 62 59 61 60 60 60 60 60 58 58 57 55 55 54 54 55 58 58 58 60 61 59 59 59 58 58 58 58
MSLP
1008.69 1008.42 1007.54 1005.98 1007.94 1009.60 1008.19 1005.54 1005.06 1004.26 1004.78 1005.10 1005.93 1006.92 1007.91 1008.01 1008.15 1010.50 1010.94 1011.21 1011.80 1012.47 1013.13 1014.56 1015.20 1015.57 1015.83 1016.14 1016.48 1016.71 1016.92 1017.08 1017.31 1017.53 1017.90 1018.18 1018.36 1018.43 1018.49 1018.48 1018.47 1018.46 1018.48 1018.60 1018.62 1018.67 1018.68 1018.64 1018.52
1007.69 1006.98 1006.16 1006.21 1008.56 1008.30 1005.97 1005.23 1004.81 1005.19 1005.99 1005.94 1006.24 1007.14 1008.07 1008.98 1009.27 1009.88 1010.84 1011.27 1011.58 1012.66 1013.91 1015.01 1015.57 1015.86 1016.09 1016.42 1016.71 1016.91 1017.20 1017.48 1017.69 1017.90 1018.12 1018.32 1018.46 1018.66 1018.82 1018.91 1018.94 1018.90 1018.95 1018.99 1019.02 1019.06 1019.12 1019.08 1018.90
1008.19 1007.14 1006.01 1005.83 1008.30 1008.29 1006.54 1004.68 1005.71 1008.36 1006.58 1007.17 1007.37 1007.99 1009.00 1009.78 1010.01 1010.17 1010.68 1011.41 1012.38 1013.65 1014.75 1015.55 1015.85 1016.06 1016.37 1016.73 1016.97 1017.20 1017.39 1017.66 1017.94 1018.25 1018.45 1018.56 1018.67 1018.77 1018.94 1019.07 1019.15 1019.19 1019.30 1019.36 1019.37 1019.42 1019.45 1019.41 1019.28
1006.60 1005.60 1005.88 1005.54 1006.45 1007.84 1007.09 1006.06 1006.89 1008.54 1010.65 1009.65 1007.96 1009.71 1010.46 1010.43 1010.44 1010.63 1010.94 1011.50 1012.86 1013.96 1014.86 1015.68 1016.15 1016.37 1016.66 1016.97 1017.25 1017.48 1017.71 1017.84 1018.13 1018.41 1018.67 1018.88 1018.97 1019.06 1019.14 1019.27 1019.37 1019.45 1019.64 1019.73 1019.70 1019.73 1019.76 1019.68 1019.52
1005.41 1004.54 1004.34 1005.90 1005.72 1004.54 1007.01 1009.43 1009.87 1012.48 1012.39 1010.31 1009.19 1010.69 1011.51 1011.25 1011.15 1011.20 1011.78 1012.54 1013.55 1014.21 1015.06 1015.79 1016.37 1016.61 1016.86 1017.19 1017.48 1017.71 1017.90 1018.24 1018.50 1018.66 1018.78 1019.05 1019.28 1019.36 1019.42 1019.54 1019.67 1019.75 1019.83 1019.93 1019.95 1019.92 1019.86 1019.78 1019.66
1004.32 1003.67 1004.07 1005.54 1005.22 1005.18 1009.50 1010.60 1012.18 1013.51 1013.06 1011.92 1009.31 1010.66 1012.27 1011.85 1011.34 1012.01 1012.37 1012.89 1013.27 1014.12 1015.14 1016.04 1016.69 1016.94 1017.22 1017.49 1017.76 1018.04 1018.21 1018.42 1018.68 1018.94 1019.06 1019.24 1019.35 1019.53 1019.54 1019.70 1019.77 1019.97 1020.11 1020.07 1020.14 1020.10 1020.05 1019.94 1019.83
1003.71 1002.89 1003.48 1004.83 1005.59 1005.92 1009.19 1009.85 1010.98 1012.68 1011.82 1010.63 1007.97 1010.11 1012.24 1011.30 1011.46 1011.75 1013.04 1013.74 1014.22 1014.73 1015.54 1016.38 1016.65 1017.16 1017.45 1017.67 1017.91 1018.21 1018.45 1018.68 1018.83 1019.10 1019.33 1019.49 1019.62 1019.78 1019.79 1019.82 1019.83 1019.94 1020.07 1020.10 1020.09 1020.09 1020.03 1019.92 1019.78
1002.83 1002.46 1002.72 1003.89 1005.13 1006.53 1009.98 1009.04 1010.02 1011.79 1011.28 1008.38 1007.19 1010.78 1011.56 1011.68 1012.12 1012.69 1013.31 1014.33 1014.79 1015.39 1016.07 1016.09 1016.50 1017.24 1017.62 1017.81 1018.19 1018.30 1018.52 1018.76 1018.89 1019.09 1019.34 1019.48 1019.57 1019.56 1019.64 1019.75 1019.75 1019.80 1019.89 1020.02 1020.04 1019.92 1019.71 1019.64 1019.68
1002.27 1002.14 1003.07 1002.78 1004.31 1007.71 1007.11 1010.23 1011.69 1012.06 1010.98 1009.93 1010.54 1011.26 1011.92 1012.44 1012.82 1013.99 1014.67 1015.26 1015.69 1015.95 1016.72 1016.57 1016.68 1017.18 1017.30 1017.77 1018.37 1018.58 1018.67 1018.77 1018.88 1019.08 1019.15 1019.35 1019.43 1019.30 1019.21 1019.35 1019.47 1019.41 1019.32 1019.47 1019.56 1019.57 1019.57 1019.65 1019.60
1001.89 1002.84 1002.01 1002.50 1003.45 1006.27 1006.99 1011.35 1013.19 1012.57 1012.72 1013.59 1013.13 1013.56 1014.11 1013.99 1014.34 1015.17 1015.94 1016.73 1017.41 1017.77 1017.74 1017.71 1017.86 1018.10 1018.45 1018.26 1018.55 1018.42 1018.77 1018.96 1019.23 1019.36 1019.65 1019.63 1019.73 1019.29 1019.12 1018.56 1018.63 1018.96 1019.30 1019.49 1019.46 1019.48 1019.85 1019.63 1019.35
1001.86 1002.62 1002.51 1003.25 1004.28 1005.51 1007.45 1010.26 1013.41 1012.59 1015.31 1015.77 1015.29 1016.09 1016.18 1015.84 1016.51 1017.24 1017.66 1018.26 1018.45 1018.86 1018.83 1018.39 1018.33 1018.42 1018.48 1018.79 1018.95 1019.02 1019.16 1019.12 1019.16 1019.47 1019.73 1020.30 1020.13 1019.99 1019.29 1018.67 1019.06 1019.68 1019.57 1020.26 1019.70 1019.65 1019.75 1019.80 1019.93
1002.29 1002.85 1003.13 1004.14 1004.73 1006.28 1008.71 1010.93 1013.90 1014.86 1016.18 1016.20 1016.90 1017.33 1017.70 1018.13 1018.61 1018.83 1019.01 1019.36 1019.42 1019.52 1019.51 1019.31 1019.01 1018.95 1019.20 1019.09 1019.24 1019.14 1019.24 1019.42 1019.66 1019.88 1019.92 1020.19 1019.93 1020.03 1019.68 1020.14 1020.55 1019.93 1020.29 1020.56 1020.06 1020.15 1020.57 1020.51 1020.29
1002.93 1003.78 1004.45 1005.32 1006.41 1008.23 1010.15 1012.16 1013.93 1015.71 1016.70 1017.22 1017.78 1018.28 1018.90 1019.45 1019.81 1019.85 1020.11 1020.30 1020.33 1020.51 1020.60 1020.40 1020.23 1020.11 1019.90 1019.76 1019.72 1019.69 1019.63 1019.69 1020.03 1020.06 1020.09 1020.13 1020.14 1020.21 1020.06 1020.24 1020.97 1020.60 1020.73 1021.07 1020.58 1020.97 1021.15 1020.98 1020.64
1003.68 1004.87 1005.99 1006.61 1007.32 1008.44 1010.10 1012.67 1014.26 1017.03 1017.47 1017.86 1018.49 1019.31 1019.93 1020.26 1020.76 1020.93 1021.15 1021.37 1021.41 1021.38 1021.31 1021.15 1021.18 1021.17 1021.19 1020.89 1020.70 1020.56 1020.37 1020.25 1020.26 1020.46 1020.73 1020.55 1020.53 1020.45 1020.52 1020.29 1020.48 1020.67 1020.86 1020.86 1020.98 1020.99 1020.89 1020.87 1020.58
1005.44 1007.15 1007.72 1007.74 1009.21 1010.00 1010.93 1013.06 1015.16 1017.06 1017.67 1018.13 1019.24 1020.03 1020.68 1021.29 1021.73 1022.02 1022.28 1022.18 1022.28 1022.11 1021.72 1021.42 1021.32 1021.46 1021.55 1021.53 1021.31 1021.11 1021.01 1020.85 1020.71 1020.80 1020.90 1020.92 1020.97 1021.05 1021.05 1020.91 1020.87 1020.63 1020.71 1020.63 1020.82 1020.72 1020.61 1020.53 1020.45
1007.20 1010.19 1012.99 1011.88 1012.62 1013.07 1008.93 1013.10 1014.07 1016.27 1017.37 1018.37 1019.70 1020.69 1021.42 1022.14 1022.36 1022.61 1022.68 1022.53 1022.40 1022.08 1021.90 1021.89 1021.63 1021.68 1021.56 1021.49 1021.24 1020.96 1020.92 1020.76 1020.56 1020.66 1020.94 1021.17 1021.27 1021.25 1021.24 1021.05 1020.92 1020.66 1020.66 1020.72 1020.71 1020.94 1020.78 1020.54 1020.39
1007.36 1010.42 1013.14 1013.71 1012.94 1012.00 1009.14 1012.11 1013.84 1015.46 1017.32 1018.77 1020.11 1021.08 1021.86 1022.44 1022.81 1022.86 1022.79 1022.70 1022.41 1022.38 1022.17 1021.91 1021.98 1022.02 1021.81 1021.53 1021.39 1020.93 1020.73 1020.45 1020.25 1020.49 1020.74 1020.84 1020.91 1021.01 1021.11 1020.91 1020.70 1020.69 1020.80 1020.69 1020.68 1020.73 1020.66 1020.25 1020.11
1006.04 1008.37 1011.19 1012.80 1010.71 1008.56 1008.53 1010.98 1013.27 1015.55 1017.40 1019.14 1020.16 1020.90 1021.51 1022.15 1022.75 1022.93 1022.89 1022.45 1022.53 1022.51 1022.51 1022.47 1022.17 1022.45 1021.96 1021.94 1021.41 1021.31 1020.93 1020.49 1020.45 1020.51 1020.54 1020.45 1020.53 1020.57 1020.41 1020.23 1019.96 1019.90 1019.95 1020.06 1020.27 1020.44 1020.12 1020.10 1020.10
1004.10 1006.74 1008.17 1008.55 1008.06 1008.07 1008.06 1009.95 1012.19 1014.91 1017.07 1018.66 1020.06 1020.89 1021.56 1021.98 1022.48 1022.36 1022.42 1022.37 1022.36 1022.44 1022.40 1022.47 1022.58 1022.65 1022.43 1022.51 1022.05 1021.80 1021.68 1020.87 1020.55 1020.36 1020.76 1020.91 1020.76 1020.66 1020.48 1020.32 1020.03 1019.75 1019.60 1019.49 1019.59 1019.85 1019.93 1019.88 1019.73
1004.08 1005.08 1007.11 1008.14 1007.88 1008.22 1008.18 1009.27 1012.94 1013.93 1016.67 1017.83 1018.94 1019.71 1020.89 1021.32 1021.77 1022.22 1022.34 1022.33 1022.36 1022.09 1022.14 1022.26 1022.45 1022.64 1022.74 1022.72 1022.37 1022.04 1021.79 1021.38 1021.15 1021.13 1020.95 1021.00 1020.68 1020.56 1020.35 1020.20 1020.08 1019.72 1019.66 1019.39 1019.32 1019.39 1019.49 1019.51 1019.41
1004.17 1005.25 1005.81 1006.22 1006.55 1006.26 1007.33 1011.31 1012.66 1016.92 1017.42 1018.38 1019.00 1019.84 1020.77 1021.84 1022.10 1022.04 1022.34 1022.51 1022.44 1022.26 1022.33 1022.53 1022.49 1022.51 1022.75 1022.78 1022.45 1022.38 1022.13 1021.69 1021.42 1021.24 1020.97 1020.83 1020.60 1020.41 1020.31 1020.13 1019.89 1019.88 1019.79 1019.54 1019.47 1019.33 1019.22 1019.12 1018.98
1004.54 1005.43 1005.74 1005.74 1005.92 1007.15 1009.44 1013.51 1016.51 1018.81 1018.63 1019.35 1019.68 1020.34 1021.42 1022.00 1022.45 1022.57 1022.86 1022.96 1023.19 1023.09 1022.73 1022.61 1022.48 1022.69 1022.83 1022.64 1022.72 1022.81 1022.38 1022.07 1021.97 1021.48 1021.40 1021.15 1020.60 1020.36 1020.02 1020.19 1020.00 1019.82 1019.80 1019.65 1019.58 1019.34 1019.13 1018.90 1019.09
1005.20 1005.59 1005.45 1005.16 1005.46 1007.40 1010.03 1013.05 1017.05 1019.01 1019.06 1019.45 1020.52 1020.74 1021.28 1021.72 1022.26 1022.61 1022.96 1023.18 1023.23 1023.24 1022.58 1022.55 1023.02 1023.04 1023.14 1023.17 1023.04 1022.93 1022.91 1022.56 1022.31 1022.03 1021.80 1021.51 1020.93 1020.35 1020.35 1020.25 1020.15 1019.77 1019.73 1019.59 1019.35 1019.21 1019.06 1018.95 1019.10
1005.74 1005.78 1005.48 1004.89 1005.42 1006.94 1008.85 1011.79 1017.79 1018.06 1018.59 1020.36 1020.99 1021.19 1021.39 1021.94 1022.28 1022.50 1022.55 1022.64 1022.94 1022.69 1022.40 1022.70 1023.04 1023.44 1023.38 1023.18 1023.20 1023.27 1023.13 1022.83 1022.64 1022.38 1022.13 1021.81 1021.17 1020.85 1020.66 1020.34 1020.04 1019.84 1019.67 1019.50 1019.26 1019.15 1019.03 1019.07 1019.01
1006.27 1006.20 1005.71 1006.04 1006.35 1007.55 1009.12 1013.29 1017.49 1018.53 1018.87 1019.62 1020.65 1021.45 1021.74 1021.71 1022.03 1022.06 1022.41 1022.47 1022.68 1022.70 1022.79 1023.15 1023.45 1023.54 1023.54 1023.58 1023.56 1023.48 1023.29 1023.11 1022.80 1022.55 1022.24 1021.86 1021.30 1021.25 1021.05 1020.64 1020.27 1019.98 1019.67 1019.51 1019.39 1019.39 1019.30 1019.31 1019.25
1006.93 1007.55 1007.55 1007.76 1008.25 1008.97 1011.31 1015.62 1018.90 1018.84 1019.51 1019.93 1020.47 1021.26 1021.51 1021.98 1022.54 1022.63 1022.83 1022.71 1023.08 1023.67 1023.77 1023.78 1023.93 1024.13 1024.15 1023.90 1023.76 1023.71 1023.56 1023.30 1023.01 1022.87 1022.54 1022.14 1021.83 1021.48 1021.06 1020.69 1020.38 1020.15 1019.86 1019.74 1019.68 1019.73 1019.62 1019.48 1019.31
1007.59 1008.16 1008.66 1008.78 1008.76 1009.55 1014.27 1017.88 1019.07 1018.93 1019.31 1019.70 1020.83 1021.47 1022.11 1022.52 1022.80 1022.82 1022.61 1022.91 1024.28 1024.22 1024.16 1024.22 1024.32 1024.37 1024.30 1024.09 1023.88 1023.89 1023.84 1023.64 1023.48 1023.19 1022.80 1022.50 1021.99 1021.53 1021.21 1020.84 1020.65 1020.45 1020.21 1019.99 1019.80 1020.04 1019.94 1019.73 1019.60
1008.68 1008.70 1008.84 1009.17 1009.91 1011.10 1014.07 1016.92 1018.26 1018.86 1019.35 1019.95 1020.73 1021.46 1022.27 1022.45 1022.62 1022.82 1023.58 1023.94 1024.21 1024.32 1024.65 1025.09 1024.73 1024.76 1024.56 1024.05 1024.11 1024.23 1024.25 1023.83 1023.55 1023.39 1023.00 1022.77 1022.26 1021.80 1021.57 1021.26 1020.96 1020.76 1020.65 1020.26 1020.28 1020.28 1020.24 1020.12 1019.93
1009.21 1009.76 1010.25 1010.61 1011.76 1012.67 1015.08 1017.02 1017.63 1018.51 1019.10 1019.56 1020.50 1021.06 1021.83 1022.28 1022.75 1023.06 1023.80 1024.34 1024.70 1024.84 1025.09 1025.24 1024.97 1024.74 1024.50 1024.61 1024.62 1024.55 1024.41 1023.96 1023.71 1023.52 1023.24 1022.99 1022.49 1022.10 1021.79 1021.53 1021.21 1021.05 1020.85 1020.69 1020.67 1020.55 1020.27 1020.17 1020.12
1010.41 1011.05 1011.38 1011.93 1012.44 1014.19 1015.49 1017.35 1017.61 1018.10 1018.64 1019.48 1020.33 1021.31 1022.12 1022.38 1023.02 1023.42 1024.32 1025.05 1025.35 1025.70 1025.93 1025.55 1025.32 1025.04 1024.85 1024.92 1024.68 1024.56 1024.44 1024.17 1023.95 1023.68 1023.48 1023.05 1022.56 1022.08 1021.82 1021.66 1021.28 1021.09 1021.10 1020.96 1020.76 1020.66 1020.56 1020.40 1020.23
Wind_Speed
7 10 11 10 6 5 13 9 1 19 19 19 24 20 24 20 12 10 18 16 20 19 16 16 13 12 12 11 11 11 11 11 13 14 12 11 11 12 12 13 14 14 15 16 16 16 16 16 17
9 14 10 4 5 6 3 13 20 16 18 14 24 23 25 21 20 14 15 16 20 19 13 13 12 12 13 13 12 11 11 13 13 12 12 12 12 11 11 12 12 14 15 15 15 15 15 15 16
10 14 7 6 1 5 9 12 24 28 23 5 9 18 12 11 19 9 17 20 20 17 14 12 11 11 13 12 11 11 12 13 12 11 10 11 11 11 11 12 11 13 13 13 13 13 13 13 14
8 8 5 8 13 22 29 20 22 28 15 5 20 17 16 18 16 14 14 21 18 18 16 13 11 11 12 11 11 12 13 13 11 11 10 9 10 10 11 11 11 11 11 11 12 12 11 11 12
11 7 5 8 21 8 28 34 36 21 25 6 19 17 14 14 15 13 22 21 20 16 15 13 12 11 11 11 11 11 13 11 10 10 11 10 9 9 10 10 9 10 9 9 9 9 9 10 10
9 11 9 1 25 15 33 35 31 19 14 28 24 17 7 3 10 24 21 17 15 16 14 13 11 11 12 11 11 11 11 10 10 9 9 9 9 9 8 8 8 8 7 8 7 7 6 5 6
13 12 5 14 10 15 26 19 19 14 18 12 18 18 9 9 12 22 22 18 16 14 14 5 9 11 11 12 12 11 11 10 10 9 8 7 7 6 6 6 7 7 6 5 4 3 3 4 6
13 11 5 17 5 3 16 10 22 17 4 22 19 14 15 9 22 18 17 20 16 13 7 10 9 8 6 9 11 11 11 10 10 9 7 6 8 9 9 8 7 7 7 4 3 2 7 7 8
14 6 6 4 13 11 16 11 19 15 23 30 28 23 14 17 24 22 16 17 15 11 13 9 7 5 7 9 8 9 10 10 9 8 9 8 6 9 11 9 12 11 12 10 7 8 9 10 12
6 13 2 11 16 13 17 6 21 12 20 22 22 20 22 20 18 17 18 16 15 13 12 10 10 9 6 5 4 3 7 4 4 6 4 4 8 1 8 13 17 13 10 9 10 9 7 11 4
5 4 3 15 11 15 17 20 20 21 14 14 14 17 17 20 21 19 17 14 14 14 12 11 11 10 10 6 3 2 1 2 2 2 6 1 7 6 8 5 2 2 4 6 5 3 3 9 7
3 7 9 7 6 16 15 12 20 23 12 15 15 15 17 18 15 15 13 11 12 13 13 15 13 11 7 5 3 4 4 5 6 8 9 6 3 6 7 6 8 1 5 3 6 6 8 7 9
3 6 12 13 19 21 21 20 16 18 15 14 15 17 18 14 13 11 13 14 13 15 13 13 13 12 11 8 5 4 2 5 4 5 8 5 5 4 2 3 4 3 7 6 6 5 5 6 8
8 7 10 12 16 16 21 15 11 10 13 15 15 19 15 14 14 13 14 13 14 12 10 12 12 12 11 9 11 7 6 5 4 5 7 8 7 7 6 5 4 4 2 3 1 1 1 3 3
24 18 21 4 10 13 22 18 14 10 12 16 19 16 15 14 14 14 12 11 8 7 7 6 9 7 7 6 5 4 5 4 5 4 6 7 6 5 6 5 4 3 3 2 2 2 3 2 5
27 18 10 28 29 18 22 8 17 15 13 17 16 14 14 11 12 10 8 7 5 6 8 10 10 9 7 5 3 2 1 2 3 2 1 3 3 4 4 4 3 3 3 2 1 3 3 2 2
6 12 11 11 32 30 7 13 15 18 14 18 15 13 11 10 9 7 6 5 5 8 7 8 9 10 9 5 7 5 4 3 4 4 2 2 0 3 3 4 5 4 3 3 4 3 4 4 3
10 6 10 17 31 7 8 15 19 19 16 16 14 12 11 11 8 6 5 6 7 6 7 7 7 7 8 6 6 6 6 4 5 4 2 1 1 5 4 5 6 6 6 6 4 6 5 3 4
9 4 3 3 8 15 5 15 16 21 18 16 12 11 10 10 9 8 7 8 5 7 4 7 8 6 6 8 6 5 7 7 2 3 10 6 5 5 5 4 8 6 5 4 5 6 6 6 6
13 5 6 4 10 18 14 8 11 20 18 16 13 11 11 11 11 9 6 5 4 3 7 7 7 7 5 4 5 2 5 7 3 4 4 4 5 4 6 5 6 7 7 7 5 3 5 5 6
9 11 12 17 10 17 5 13 19 15 13 13 9 14 10 11 5 6 9 6 4 3 7 6 5 5 3 7 7 6 6 7 5 7 5 6 6 5 6 6 6 7 7 7 7 5 6 5 4
9 10 16 18 17 10 8 3 5 5 8 7 11 14 13 11 9 8 10 7 7 9 5 3 4 7 5 6 6 7 6 6 5 5 5 6 4 5 6 7 8 4 5 7 4 6 6 4 4
12 16 16 20 20 6 1 5 5 13 11 6 11 11 12 11 11 5 5 6 8 7 3 8 10 9 10 8 6 6 8 8 7 6 8 6 7 6 9 5 7 5 5 6 5 5 6 3 2
11 16 23 18 9 3 6 1 7 8 6 14 9 12 11 8 5 2 4 5 2 6 9 7 9 8 8 8 10 11 9 9 7 7 6 6 6 7 8 9 6 5 5 5 4 4 5 4 4
20 18 11 10 11 12 6 15 8 16 16 13 10 8 7 4 5 3 6 3 2 11 11 10 11 11 11 11 11 10 10 10 9 8 6 8 5 6 8 8 6 5 5 5 5 4 4 4 3
12 13 10 15 14 15 19 8 5 13 11 8 9 8 6 5 10 7 9 11 11 14 11 9 9 11 9 8 9 8 9 7 8 9 8 7 6 5 7 6 5 6 6 6 5 5 5 5 3
7 12 13 12 16 9 9 9 3 4 6 7 9 5 3 14 9 7 4 9 15 8 9 9 11 10 10 10 9 10 9 9 9 10 7 6 7 6 8 7 5 5 5 5 4 5 6 4 4
13 14 8 8 9 11 10 13 6 9 8 9 7 15 11 6 9 8 13 11 10 12 13 14 12 10 10 8 9 9 10 10 8 8 9 9 8 7 6 5 5 5 4 5 6 4 3 5 5
9 11 7 4 3 5 4 7 8 14 10 12 11 11 13 13 8 11 12 13 14 15 13 11 11 10 10 9 10 9 10 9 7 8 7 7 6 6 5 5 4 5 5 4 1 2 1 1 3
12 8 9 7 10 10 17 6 10 11 9 12 12 12 9 6 15 13 16 14 14 16 12 10 10 10 8 11 9 8 9 9 9 8 9 7 5 5 4 7 6 5 3 6 6 6 8 7 6
Wind_Direction
220 222 229 249 53 163 247 146 269 83 69 71 76 75 73 55 86 110 99 102 94 97 103 94 92 88 89 94 101 105 106 102 89 90 98 95 94 92 93 92 90 91 90 87 80 74 67 57 47
281 284 247 99 75 295 104 159 96 93 49 82 101 86 72 69 81 89 104 96 76 86 88 94 95 96 93 95 103 101 95 94 93 103 106 106 104 102 99 92 91 92 92 88 82 74 65 55 45
266 264 267 116 171 269 265 105 73 29 111 134 73 56 38 51 85 99 113 106 101 96 95 92 88 91 93 93 100 102 105 102 103 106 108 112 111 109 105 99 94 96 92 89 83 75 66 56 45
259 219 236 215 190 213 246 84 75 33 354 269 107 75 59 61 81 96 72 96 102 97 107 102 94 95 99 101 100 106 101 101 110 111 110 112 112 112 109 107 101 100 96 90 83 75 65 53 41
236 262 245 258 292 97 75 70 71 80 321 4 87 98 86 106 89 105 103 89 110 115 111 101 100 101 104 103 100 100 100 104 110 118 120 123 119 117 117 116 111 108 104 96 85 73 58 44 32
265 249 81 50 252 80 84 88 83 72 258 271 115 104 86 266 116 87 85 75 84 92 102 101 107 100 99 99 100 105 109 114 117 116 121 127 131 133 133 132 125 114 100 94 82 64 44 27 13
260 285 117 217 300 54 122 108 119 187 225 225 126 95 140 121 105 102 95 87 86 89 91 66 108 112 110 111 115 114 112 109 110 117 124 129 131 137 142 147 143 133 117 105 100 64 332 327 338
257 293 295 214 170 172 85 126 147 159 220 44 122 122 118 127 92 87 71 71 67 80 111 48 61 95 162 119 120 122 121 122 125 132 141 151 167 171 182 176 164 159 150 152 156 273 284 302 302
258 266 342 339 135 71 52 23 124 94 81 69 66 95 116 99 76 72 69 57 44 43 70 35 69 84 122 115 124 131 134 138 142 156 171 186 212 195 192 186 167 184 180 180 192 237 269 301 287
84 300 150 14 39 120 125 121 89 67 72 62 59 54 53 59 70 76 66 60 52 33 40 43 30 77 22 59 87 92 80 63 26 13 47 331 305 343 253 174 189 190 186 198 217 242 293 292 320
53 237 74 45 54 103 100 66 46 120 67 62 72 62 57 57 63 64 65 59 59 48 38 37 28 44 63 54 66 75 45 46 333 9 96 5 320 22 332 354 97 351 44 339 226 349 31 16 3
21 360 62 41 17 73 79 77 70 71 90 78 80 78 71 64 57 59 73 65 64 50 42 31 36 44 51 61 95 65 64 44 40 33 33 34 11 23 17 36 3 116 126 222 39 38 20 1 354
148 77 75 64 71 78 80 77 84 75 84 87 82 82 79 71 71 64 59 41 57 53 35 45 35 31 22 45 31 52 77 70 59 48 30 26 31 32 20 97 168 76 24 10 40 27 1 351 349
95 119 125 140 136 131 105 98 68 87 98 90 90 76 76 71 60 56 49 46 46 49 49 49 41 33 28 22 28 11 29 37 20 39 25 25 11 15 359 7 352 21 18 14 360 6 21 309 330
49 31 6 113 148 121 124 65 99 124 113 105 88 87 80 67 66 64 59 56 58 57 46 38 73 71 56 19 19 15 9 22 36 18 26 12 15 10 354 345 343 341 320 326 275 251 215 253 248
77 60 20 313 323 332 222 163 132 151 135 115 99 90 82 75 74 72 67 67 64 74 70 53 29 30 21 2 298 163 11 176 150 111 60 23 357 340 328 310 292 305 314 290 312 295 292 253 291
336 124 156 223 254 253 1 141 148 163 135 109 105 103 102 101 92 91 97 89 89 76 69 63 69 22 354 13 328 351 307 297 197 141 91 157 205 264 250 255 259 256 274 259 261 260 260 255 271
184 143 118 213 269 283 110 110 154 147 122 116 121 124 126 117 116 121 137 126 79 73 60 62 55 46 4 351 338 359 342 329 78 89 35 328 31 323 307 306 295 199 239 217 225 247 238 248 247
4 139 70 303 300 310 347 143 157 122 128 117 125 124 120 133 148 156 114 95 111 98 71 64 66 35 24 1 350 346 340 325 348 68 38 42 19 346 340 338 323 331 313 303 256 245 247 242 234
322 354 84 275 250 255 293 191 142 140 120 121 142 146 142 150 141 137 157 159 132 105 92 76 69 45 38 360 315 6 321 318 349 94 58 6 323 342 313 328 302 302 318 313 315 324 255 242 248
25 355 344 325 253 272 296 39 45 37 81 124 124 128 122 80 80 96 62 12 37 47 82 70 76 49 44 15 354 2 356 340 359 349 353 347 330 336 304 314 296 327 325 311 338 332 292 254 266
347 353 325 312 308 335 91 258 135 62 59 149 129 101 100 120 116 76 67 53 30 8 32 56 55 46 37 16 356 345 319 326 332 303 349 319 324 291 286 334 318 336 316 318 327 317 307 286 282
345 327 296 292 283 69 117 124 80 150 229 143 99 105 115 108 104 103 57 63 10 280 189 48 49 37 37 15 1 345 357 339 328 358 342 350 323 336 25 345 328 339 330 319 333 333 319 306 297
294 319 309 294 303 298 125 2 40 31 102 107 102 101 100 105 108 51 109 72 277 264 22 29 48 31 11 356 7 18 3 348 348 359 357 339 334 356 5 350 336 336 331 338 336 343 347 334 317
353 334 323 348 325 337 348 67 37 64 64 104 124 116 124 91 32 76 71 37 302 18 12 24 24 3 358 26 8 13 356 345 341 352 345 329 325 0 345 341 337 349 357 9 3 7 343 354 341
341 346 345 326 316 301 46 61 34 59 86 102 124 135 88 78 40 53 36 24 4 49 43 30 13 19 19 23 10 357 360 4 360 356 345 339 350 340 340 337 358 20 18 30 26 36 8 355 2
11 337 329 285 274 271 123 93 88 134 92 87 108 70 24 64 62 33 24 31 71 43 29 16 31 12 20 7 354 30 19 9 13 351 351 351 352 344 8 13 28 42 24 26 23 50 5 19 17
2 327 347 331 322 339 102 81 75 108 109 91 62 76 105 154 73 26 53 49 33 15 45 26 31 21 0 344 25 28 11 350 15 347 1 356 351 359 9 354 36 37 31 21 28 20 44 23 357
18 8 349 0 303 340 267 79 78 86 62 78 90 79 60 55 17 43 51 38 15 23 16 23 10 6 358 44 38 11 1 356 1 360 2 341 334 359 6 347 34 35 4 16 328 222 257 76 19
59 20 10 347 345 41 325 67 76 60 60 96 91 73 65 21 37 21 36 24 13 26 24 2 9 8 13 40 5 16 4 0 6 358 0 350 326 353 13 14 5 12 19 4 5 22 11 10 9